Simultaneous Nadir Overpasses (SNOs) Predictions

Prediction of SNOs between GOES-14 and NPP Satellite Orbit:

Table of predicted SNOs for the next 14.0 days since TLE Epoch: 10/12/2024
Index Date Time (GOES-14) GOES-14 Lat,Lon NPP Lat,Lon Distance(km) Time Diff (sec)
1 10/12/2024 08:44:52 -0.07,-108.57 0.17,-109.67 125.59 80
2 10/13/2024 08:23:29 -0.08,-108.57 -0.84,-105.14 390.36 80
3 10/14/2024 20:45:26 0.07,-108.51 -0.36,-110.45 220.48 80
4 10/15/2024 20:29:23 0.08,-108.52 0.67,-105.92 296.16 80
5 10/17/2024 08:51:12 -0.07,-108.59 0.51,-111.20 297.18 80
6 10/18/2024 08:29:49 -0.07,-108.59 -0.53,-106.68 218.99 80
7 10/19/2024 20:51:45 0.07,-108.53 -0.70,-111.97 392.57 80
8 10/20/2024 20:35:40 0.07,-108.53 0.29,-107.44 123.86 80
9 10/22/2024 08:57:30 -0.07,-108.60 0.85,-112.72 469.08 80
10 10/23/2024 08:36:05 -0.07,-108.60 -0.16,-108.19 46.96 80
11 10/25/2024 20:39:17 0.08,-108.54 -0.01,-108.96 48.23 80
